LogID,LogEntryDate,LogEntryTime,LogEntrySeconds,LogNotes,AFR,STFT,CurrentLTFT,CruiseLTFT,IdleLTFT,IPW,O2Sensor2,Load,AFRMAP,LoadTiming,TimingAdv,KnockSum,RPM,IDC,Baro,MAP,Boost,OmniMAP,OmniBoost,WGDC_Active,MAF,InVVTtarget,ExVVTtarget,InVVTactual,ExVVTactual,TPS,APP,IAT,WGDCCorr,Speed,Battery,ECT,MAT,MAPCalcs,IMAPCalcs,MAFCalcs,ChosenCalc,EthanolPercent,Custom
1,2019-05-19,10:56:23.04212,0.23988,,0,0,-11.1328125,-11.1328125,-0.1953125,2,0,37.5,14.7,37.5,38,0,2554.6875,4.2578125,14.28621739,9.0697686,-5.21644879,11.0121,-3.27411739,0,1.882368,16.875,-10,17.65625,-7.65625,20.3921568627451,21.2470588235294,86,0,27.346,14.22602,185,100.4,46.875,0,35.9375,37.5,78.4313725490196,
2,2019-05-19,10:56:23.07340,0.26141,,0,0,-11.1328125,-11.1328125,-0.1953125,2,0,37.5,14.7,37.5,38,0,2609.375,4.34895833333333,14.28621739,9.0697686,-5.21644879,11.0121,-3.27411739,0,1.882368,16.875,-10,17.65625,-7.65625,20.3921568627451,21.2470588235294,86,0,27.346,14.22602,185,100.4,45.3125,0,35.9375,35.9375,78.4313725490196,
3,2019-05-19,10:56:23.08902,0.28398,,0,0,-11.1328125,-11.1328125,-0.1953125,2,0,37.5,14.7,37.5,38,0,2585.9375,4.30989583333333,14.28621739,9.0697686,-5.21644879,11.0121,-3.27411739,0,1.882368,16.875,-10,17.65625,-7.65625,20.3921568627451,21.2470588235294,86,0,27.346,14.22602,185,100.4,45.3125,0,37.5,35.9375,78.4313725490196,
4,2019-05-19,10:56:23.12024,0.31605,,0,0,-11.1328125,-11.1328125,-0.1953125,2,0,35.9375,14.7,35.9375,39,0,2554.6875,4.2578125,14.28621739,9.0697686,-5.21644879,11.0121,-3.27411739,0,1.882368,15.625,-10,17.8125,-8.125,20.3921568627451,21.2470588235294,86,0,27.346,14.22602,185,100.4,45.3125,0,35.9375,35.9375,78.4313725490196,
5,2019-05-19,10:56:23.15162,0.34126,,0,0,-11.1328125,-11.1328125,-0.1953125,2,0,35.9375,14.7,35.9375,39,0,2523.4375,4.20572916666667,14.28621739,9.0697686,-5.21644879,11.0121,-3.27411739,0,1.86276,15.625,-10,17.8125,-8.125,20.3921568627451,20.7411764705882,86,0,27.346,14.22602,185,100.4,45.3125,0,35.9375,35.9375,78.4313725490196,
6,2019-05-19,10:56:23.18272,0.36776,,10.6281,0,-11.1328125,-11.1328125,-0.1953125,2,0,35.9375,14.7,35.9375,39,0,2539.0625,4.23177083333333,14.28621739,9.0697686,-5.21644879,11.0121,-3.27411739,0,1.86276,16.25,-10,17.5,-8.59375,20.3921568627451,20.7411764705882,86,0,27.346,14.29935,185,100.4,45.3125,0,35.9375,35.9375,78.4313725490196,
7,2019-05-19,10:56:23.21409,0.39855,,10.6281,0,-11.1328125,-11.1328125,-0.1953125,2,0,35.9375,14.7,35.9375,39,0,2570.3125,4.28385416666667,14.28621739,8.9732817,-5.31293569,10.89495,-3.39126739,0,1.86276,16.25,-10,17.5,-8.59375,20.3921568627451,20.7411764705882,86,0,27.346,14.29935,185,100.4,46.875,0,34.375,35.9375,78.4313725490196,
8,2019-05-19,10:56:23.22958,0.42611,,10.6281,0,-11.1328125,-11.1328125,-0.1953125,2,0,35.9375,14.7,35.9375,39,0,2609.375,4.34895833333333,14.28621739,8.9732817,-5.31293569,10.89495,-3.39126739,0,1.86276,16.25,-10,17.34375,-8.90625,20.7843137254902,21.2470588235294,86,0,27.346,14.29935,185,100.4,45.3125,0,35.9375,35.9375,78.4313725490196,
9,2019-05-19,10:56:23.26086,0.45107,,10.6281,0,-11.1328125,-11.1328125,-0.1953125,2,0,35.9375,14.7,35.9375,39,0,2617.1875,4.36197916666667,14.28621739,8.9732817,-5.31293569,10.89495,-3.39126739,0,1.901976,16.25,-10,17.34375,-8.90625,20.7843137254902,21.2470588235294,86,0,27.346,14.22602,185,100.4,45.3125,0,37.5,35.9375,78.4313725490196,
10,2019-05-19,10:56:23.29220,0.4759,,10.6281,0,-11.1328125,-11.1328125,-0.1953125,2,0,35.9375,14.7,35.9375,39,0,2585.9375,4.30989583333333,14.28621739,8.9732817,-5.31293569,10.89495,-3.39126739,0,1.901976,16.25,-10,17.5,-9.0625,20.7843137254902,21.2470588235294,86,0,27.346,14.22602,185,100.4,45.3125,0,37.5,35.9375,78.4313725490196,
11,2019-05-19,10:56:23.32334,0.50659,,10.6281,0,-11.1328125,-11.1328125,-0.1953125,2,0,35.9375,14.7,35.9375,39,0,2578.125,4.296875,14.28621739,9.1662555,-5.11996189,11.12925,-3.15696739,0,1.882368,16.25,-10,17.5,-9.0625,20.7843137254902,21.2470588235294,86,0,27.346,14.22602,185,100.4,45.3125,0,35.9375,35.9375,78.4313725490196,
12,2019-05-19,10:56:23.33901,0.53298,,10.6722,0,-11.1328125,-11.1328125,-0.1953125,2,0,35.9375,14.7,35.9375,39,0,2562.5,4.27083333333333,14.28621739,9.1662555,-5.11996189,11.12925,-3.15696739,0,1.882368,16.875,-10,17.65625,-9.53125,20.7843137254902,21.2470588235294,86,0,27.346,14.29935,185,100.4,46.875,0,35.9375,35.9375,78.4313725490196,
13,2019-05-19,10:56:23.37021,0.55977,,10.6722,0,-11.1328125,-11.1328125,-0.1953125,2,0,35.9375,14.7,35.9375,39,0,2585.9375,4.30989583333333,14.28621739,9.1662555,-5.11996189,11.12925,-3.15696739,0,1.901976,16.875,-10,17.65625,-9.53125,20.7843137254902,21.2470588235294,86,0,27.346,14.29935,185,100.4,46.875,0,37.5,35.9375,78.4313725490196,
14,2019-05-19,10:56:23.40153,0.5858,,10.6722,0,-11.1328125,-11.1328125,-0.1953125,2,0,35.9375,14.7,35.9375,39,0,2601.5625,4.3359375,14.28621739,9.1662555,-5.11996189,11.12925,-3.15696739,0,1.901976,17.5,-10,17.5,-9.53125,22.7450980392157,26.3058823529412,86,0,27.346,14.29935,185,100.4,46.875,0,39.0625,37.5,78.4313725490196,
15,2019-05-19,10:56:23.43266,0.62586,,10.6722,0,-11.1328125,-11.1328125,-0.1953125,2.2,0,37.5,14.7,37.5,39,0,2625,4.8125,14.28621739,9.7451769,-4.54104049,11.83215,-2.45406739,0,2.05884,17.5,-10,17.5,-9.53125,22.7450980392157,26.3058823529412,86,0,28.589,14.29935,185,100.4,50,0,54.6875,42.1875,78.4313725490196,
16,2019-05-19,10:56:23.47968,0.66315,,10.6722,0,-11.1328125,-11.1328125,-0.1953125,2.5,0,43.75,14.7,43.75,37,0,2617.1875,5.45247395833333,14.28621739,9.7451769,-4.54104049,11.83215,-2.45406739,0,2.05884,20.625,-10,17.8125,-9.53125,22.7450980392157,26.3058823529412,86,0,28.589,14.29935,185,100.4,54.6875,0,53.125,46.875,78.4313725490196,
17,2019-05-19,10:56:23.51080,0.70575,,10.8045,0,-11.1328125,-11.1328125,-0.1953125,2.5,0,46.875,14.7,46.875,37,0,2601.5625,5.419921875,14.28621739,10.9030197,-3.38319769,13.23795,-1.04826739,0,1.980408,20.625,-10,17.8125,-9.53125,23.921568627451,26.3058823529412,86,0,28.589,14.29935,185,100.4,59.375,0,50,48.4375,78.4313725490196,
18,2019-05-19,10:56:23.54204,0.73535,,10.8045,0,-11.1328125,-11.1328125,-0.1953125,2.5,0,48.4375,14.7,48.4375,37,0,2617.1875,5.45247395833333,14.28621739,10.9030197,-3.38319769,13.23795,-1.04826739,0,1.980408,21.875,-10,19.6875,-9.6875,23.921568627451,26.3058823529412,86,0,28.589,14.29935,185,100.4,59.375,0,48.4375,48.4375,78.4313725490196,
19,2019-05-19,10:56:23.57328,0.76341,,10.8045,0,-11.1328125,-11.1328125,-0.1953125,2.5,0,48.4375,14.7,48.4375,37,0,2640.625,5.50130208333333,14.28621739,10.9030197,-3.38319769,13.23795,-1.04826739,0,2.078448,21.875,-10,19.6875,-9.6875,23.921568627451,26.3058823529412,86,0,28.589,14.29935,185,100.4,60.9375,0,51.5625,48.4375,78.4313725490196,
20,2019-05-19,10:56:23.60449,0.78929,,10.8045,0,-11.1328125,-11.1328125,-0.1953125,2.5,0,48.4375,14.7,48.4375,37,0,2648.4375,5.517578125,14.28621739,10.9030197,-3.38319769,13.23795,-1.04826739,0,2.078448,23.125,-10,20.9375,-9.53125,27.4509803921569,36.9294117647059,86,0,28.589,14.29935,185,100.4,60.9375,0,62.5,51.5625,78.4313725490196,
21,2019-05-19,10:56:23.63574,0.83057,,10.8045,0,-11.1328125,-11.1328125,-0.1953125,2.8,0,51.5625,14.7,53.125,37,0,2648.4375,6.1796875,14.28621739,12.1573494,-2.12886799,14.7609,0.47468261,0,2.35296,23.125,-10,20.9375,-9.53125,27.4509803921569,36.9294117647059,86,0,28.589,14.22602,185,100.4,67.1875,0,85.9375,60.9375,78.4313725490196,
22,2019-05-19,10:56:23.68275,0.86699,,11.0103,0,-11.1328125,-11.1328125,-0.1953125,3.6,0,65.625,14.7,65.625,34,0,2648.4375,7.9453125,14.28621739,12.1573494,-2.12886799,14.7609,0.47468261,0,2.35296,25,0,22.8125,-9.6875,27.4509803921569,36.9294117647059,86,0,28.589,14.22602,185,100.4,79.6875,0,93.75,71.875,78.4313725490196,
23,2019-05-19,10:56:23.72960,0.91292,,11.0103,0,-11.1328125,-11.1328125,-0.1953125,3.7,0,71.875,14.7,73.4375,30,0,2656.25,8.19010416666667,14.28621739,14.5695219,0.283304510000001,17.68965,3.40343261,8,2.196096,25,0,22.8125,-9.6875,72.5490196078431,100.164705882353,86,0,28.589,14.22602,185,100.4,90.625,0,81.25,73.4375,78.0392156862745,
24,2019-05-19,10:56:23.76083,0.95309,,11.0103,0,-11.1328125,-11.1328125,-0.1953125,3.6,0,75,14.7,75,29,0,2632.8125,7.8984375,14.28621739,14.5695219,0.283304510000001,17.68965,3.40343261,8,2.196096,22.5,0,23.59375,-0.3125,72.5490196078431,100.164705882353,86,0,28.589,14.22602,185,102.2,90.625,0,78.125,75,78.0392156862745,
25,2019-05-19,10:56:23.79198,0.98516,,11.0103,0,-11.1328125,-11.1328125,-0.1953125,3.6,0,75,14.7,75,29,0,2734.375,8.203125,14.28621739,14.6660088,0.379791410000001,17.8068,3.52058261,24.5,1.86276,22.5,0,23.59375,-0.3125,72.5490196078431,100.164705882353,86,0,28.589,14.22602,185,102.2,90.625,0,82.8125,76.5625,78.4313725490196,
26,2019-05-19,10:56:23.83897,1.02208,,11.4954,0,-11.1328125,-11.1328125,-0.1953125,3.6,0,78.125,14.7,78.125,28,0,2757.8125,8.2734375,14.28621739,14.6660088,0.379791410000001,17.8068,3.52058261,24.5,1.86276,20.625,0,23.75,-0.3125,86.6666666666667,100.670588235294,84.2,0,28.589,14.22602,185,102.2,92.1875,0,79.6875,78.125,78.0392156862745,
27,2019-05-19,10:56:23.87006,1.06344,,11.4954,0,-11.1328125,-11.1328125,-0.1953125,3.7,0,78.125,14.7,79.6875,27,0,2703.125,8.33463541666667,14.28621739,14.7624957,0.476278310000001,17.92395,3.63773261,24.5,1.784328,20.625,0,23.75,-0.3125,86.6666666666667,100.670588235294,84.2,0,28.589,14.29935,185,102.2,92.1875,0,76.5625,79.6875,78.4313725490196,
28,2019-05-19,10:56:23.90130,1.09301,,11.4954,0,-11.1328125,-11.1328125,-0.1953125,3.7,0,79.6875,14.7,79.6875,27,0,2679.6875,8.26236979166667,14.28621739,14.7624957,0.476278310000001,17.92395,3.63773261,24.5,1.784328,20,0,22.96875,-0.3125,86.6666666666667,100.670588235294,84.2,0,28.589,14.29935,185,102.2,92.1875,0,81.25,79.6875,78.4313725490196,
29,2019-05-19,10:56:23.93257,1.12649,,11.4954,0,-11.1328125,-11.1328125,-0.1953125,3.7,0,79.6875,14.7,79.6875,27,0,2710.9375,8.35872395833333,14.28621739,14.8589826,0.57276521,18.0411,3.75488261,24.5,2.607864,20,0,22.96875,-0.3125,87.0588235294118,101.176470588235,84.2,0,28.589,14.29935,185,102.2,93.75,0,81.25,79.6875,78.0392156862745,
30,2019-05-19,10:56:23.96382,1.153,,11.4954,0,-11.1328125,-11.1328125,-0.1953125,3.7,0,79.6875,14.7,79.6875,27,0,2773.4375,8.55143229166667,14.28621739,14.8589826,0.57276521,18.0411,3.75488261,24.5,2.607864,20.625,-0.625,22.34375,-0.3125,87.0588235294118,101.176470588235,84.2,0,28.589,14.29935,185,102.2,93.75,0,84.375,79.6875,78.4313725490196,
31,2019-05-19,10:56:23.99517,1.1921,,10.9368,0,-11.1328125,-11.1328125,-0.1953125,3.7,0,79.6875,14.7,79.6875,26,0,2789.0625,8.599609375,14.28621739,14.9554695,0.66925211,18.15825,3.87203261,24.5,1.745112,20.625,-0.625,22.34375,-0.3125,87.0588235294118,101.176470588235,84.2,0,28.589,14.29935,185,102.2,93.75,0,81.25,81.25,78.0392156862745,
32,2019-05-19,10:56:24.02628,1.22165,,10.9368,0,-11.1328125,-11.1328125,-0.1953125,3.7,0,81.25,14.7,81.25,26,0,2757.8125,8.50325520833333,14.28621739,14.9554695,0.66925211,18.15825,3.87203261,24.5,1.745112,18.75,0,22.03125,-0.15625,87.0588235294118,101.176470588235,84.2,0,28.589,14.29935,185,102.2,93.75,0,87.5,82.8125,78.4313725490196,
33,2019-05-19,10:56:24.07327,1.26285,,10.9368,0,-11.1328125,-11.1328125,-0.1953125,3.7,0,82.8125,14.5860465116279,82.8125,25,0,2750,8.47916666666667,14.28621739,15.0519564,0.765739010000001,18.2754,3.98918261,24.5,2.803944,18.75,0,22.03125,-0.15625,87.0588235294118,101.176470588235,84.2,0,28.589,14.22602,185,102.2,93.75,0,87.5,82.8125,78.4313725490196,
34,2019-05-19,10:56:24.10451,1.29193,,10.9368,0,-11.1328125,-11.1328125,-0.1953125,3.5,0,82.8125,14.5860465116279,82.8125,25,0,2781.25,8.11197916666667,14.28621739,15.0519564,0.765739010000001,18.2754,3.98918261,24.5,2.803944,19.375,-1.25,21.40625,-0.3125,87.0588235294118,101.176470588235,84.2,0,28.589,14.22602,185,102.2,95.3125,0,82.8125,82.8125,78.4313725490196,
35,2019-05-19,10:56:24.13562,1.32869,,10.9368,0,-11.1328125,-11.1328125,-0.1953125,3.5,0,82.8125,14.5860465116279,84.375,26,0,2820.3125,8.22591145833333,14.28621739,15.1484433,0.862225910000001,18.39255,4.10633261,24.5,1.784328,19.375,-1.25,21.40625,-0.3125,87.0588235294118,101.176470588235,84.2,0,28.589,14.22602,185,102.2,95.3125,0,87.5,82.8125,78.4313725490196,
36,2019-05-19,10:56:24.16689,1.36283,,12.0834,0,-11.1328125,-11.1328125,-0.1953125,3.4,0,84.375,14.5860465116279,84.375,26,0,2835.9375,8.03515625,14.28621739,15.1484433,0.862225910000001,18.39255,4.10633261,24.5,1.784328,18.75,-1.25,20.78125,-0.15625,87.0588235294118,101.176470588235,84.2,0,31.075,14.15269,185,102.2,95.3125,0,87.5,84.375,78.4313725490196,
37,2019-05-19,10:56:24.19810,1.39482,,12.0834,0,-11.1328125,-11.1328125,-0.1953125,3.4,0,84.375,14.5860465116279,84.375,26,0,2820.3125,7.99088541666667,14.28621739,15.2449302,0.958712810000002,18.5097,4.22348261,24.5,2.686296,18.75,-1.25,20.78125,-0.15625,87.0588235294118,101.176470588235,84.2,0,31.075,14.15269,185,102.2,95.3125,0,79.6875,84.375,78.4313725490196,
38,2019-05-19,10:56:24.22935,1.41523,,12.0834,0,-11.1328125,-11.1328125,-0.1953125,3.4,0,84.375,14.5860465116279,84.375,25,0,2820.3125,7.99088541666667,14.28621739,15.2449302,0.958712810000002,18.5097,4.22348261,24.5,2.686296,19.375,-1.875,20.625,-0.3125,87.0588235294118,101.176470588235,84.2,0,31.075,14.15269,185,102.2,96.875,0,85.9375,84.375,78.4313725490196,
39,2019-05-19,10:56:24.26059,1.44951,,12.0834,0,-11.1328125,-11.1328125,-0.1953125,3.3,0,84.375,14.5860465116279,84.375,26,0,2828.125,7.77734375,14.28621739,15.2449302,0.958712810000002,18.5097,4.22348261,24.5,2.392176,19.375,-1.875,20.625,-0.3125,87.0588235294118,101.176470588235,84.2,0,31.075,14.22602,183.2,102.2,96.875,0,89.0625,84.375,78.4313725490196,
40,2019-05-19,10:56:24.29190,1.47499,,12.0834,0,-11.1328125,-11.1328125,-0.1953125,3.3,0,84.375,14.5860465116279,84.375,26,0,2859.375,7.86328125,14.28621739,15.2449302,0.958712810000002,18.5097,4.22348261,24.5,2.392176,20.625,-2.5,20.3125,-0.3125,87.0588235294118,101.176470588235,84.2,0,31.075,14.22602,183.2,102.2,96.875,0,84.375,84.375,78.4313725490196,
41,2019-05-19,10:56:24.32311,1.51807,,12.3774,0,-11.1328125,-11.1328125,-0.1953125,3.2,0,84.375,14.5860465116279,84.375,26,0,2875,7.66666666666667,14.21369852,15.3414171,1.12771858,18.62685,4.41315148,24.5,2.078448,20.625,-2.5,20.3125,-0.3125,87.0588235294118,101.176470588235,84.2,0,31.075,14.22602,183.2,102.2,98.4375,0,92.1875,84.375,78.4313725490196,
42,2019-05-19,10:56:24.35432,1.55218,,12.3774,0,-11.1328125,-11.1328125,-0.1953125,3.1,0,84.375,14.5860465116279,84.375,25,0,2867.1875,7.40690104166667,14.21369852,15.3414171,1.12771858,18.62685,4.41315148,24.5,2.078448,20.625,-2.5,20.46875,-0.15625,87.0588235294118,101.176470588235,84.2,0,31.075,14.22602,183.2,102.2,96.875,0,85.9375,84.375,78.0392156862745,
43,2019-05-19,10:56:24.40118,1.59631,,12.3774,0,-11.1328125,-11.1328125,-0.1953125,3.1,0,85.9375,14.5860465116279,85.9375,26,0,2875,7.42708333333333,14.28621739,15.5343909,1.24817351,18.86115,4.57493261,24.5,2.607864,20.625,-2.5,20.46875,-0.15625,87.0588235294118,101.176470588235,84.2,0,31.075,14.22602,183.2,102.2,98.4375,0,85.9375,84.375,78.4313725490196,
44,2019-05-19,10:56:24.44817,1.63159,,12.3774,0,-11.1328125,-11.1328125,-0.1953125,3.2,0,85.9375,14.5860465116279,84.375,25,0,2906.25,7.75,14.28621739,15.5343909,1.24817351,18.86115,4.57493261,24.5,2.607864,21.25,-3.125,20.9375,-0.15625,86.6666666666667,101.176470588235,84.2,0,31.075,14.22602,183.2,102.2,98.4375,0,89.0625,85.9375,78.4313725490196,
45,2019-05-19,10:56:24.47929,1.66784,,12.3774,0,-11.1328125,-11.1328125,-0.1953125,3.2,0,85.9375,14.5860465116279,85.9375,25,0,2929.6875,7.8125,14.28621739,15.6308778,1.34466041,18.9783,4.69208261,24.5,2.725512,21.25,-3.125,20.9375,-0.15625,86.6666666666667,101.176470588235,84.2,0,31.075,14.22602,183.2,102.2,98.4375,0,92.1875,87.5,78.0392156862745,
46,2019-05-19,10:56:24.51056,1.70495,,13.3917,0,-11.1328125,-11.1328125,-0.1953125,3.2,0,87.5,14.4738461538462,87.5,25,0,2937.5,7.83333333333333,14.28621739,15.6308778,1.34466041,18.9783,4.69208261,24.5,2.725512,20.625,-3.75,21.09375,-0.625,86.6666666666667,101.176470588235,84.2,0,31.075,14.22602,183.2,102.2,100,0,89.0625,87.5,78.4313725490196,
47,2019-05-19,10:56:24.54177,1.73104,,13.3917,0,-11.1328125,-11.1328125,-0.1953125,3.2,0,87.5,14.4738461538462,87.5,25,0,2921.875,7.79166666666667,14.28621739,15.6308778,1.34466041,18.9783,4.69208261,24.5,2.431392,20.625,-3.75,21.09375,-0.625,86.6666666666667,100.670588235294,84.2,0,31.075,14.22602,183.2,102.2,98.4375,0,89.0625,87.5,78.0392156862745,
48,2019-05-19,10:56:24.57302,1.75788,,13.3917,0,-11.1328125,-11.1328125,-0.1953125,3.2,0,87.5,14.4738461538462,89.0625,25,0,2945.3125,7.85416666666667,14.28621739,15.6308778,1.34466041,18.9783,4.69208261,24.5,2.431392,21.25,-4.375,21.40625,-1.09375,86.6666666666667,100.670588235294,84.2,0,31.075,14.22602,183.2,102.2,100,0,87.5,89.0625,78.4313725490196,
49,2019-05-19,10:56:24.60429,1.79658,,13.3917,0,-11.1328125,-11.1328125,-0.1953125,3.3,0,89.0625,14.4738461538462,89.0625,25,0,2960.9375,8.142578125,14.28621739,15.7273647,1.44114731,19.09545,4.80923261,24.5,2.294136,21.25,-4.375,21.40625,-1.09375,86.6666666666667,100.670588235294,84.2,0,31.075,14.22602,183.2,102.2,100,0,89.0625,89.0625,78.4313725490196,
50,2019-05-19,10:56:24.63565,1.82149,,13.3917,0,-11.1328125,-11.1328125,-0.1953125,3.3,0,89.0625,14.4738461538462,89.0625,25,0,2984.375,8.20703125,14.28621739,15.7273647,1.44114731,19.09545,4.80923261,24.5,2.294136,21.25,-4.375,21.5625,-1.71875,86.6666666666667,100.670588235294,84.2,0,31.075,14.22602,183.2,102.2,100,0,100,90.625,78.4313725490196,
51,2019-05-19,10:56:24.66674,1.86363,,14.7294,0,-11.1328125,-11.1328125,-0.1953125,3.3,0,90.625,14.4738461538462,90.625,24,0,2976.5625,8.185546875,14.28621739,15.8238516,1.53763421,19.2126,4.92638261,24.5,2.215704,21.25,-4.375,21.5625,-1.71875,86.6666666666667,100.670588235294,84.2,0,31.075,14.22602,183.2,102.2,101.5625,0,93.75,92.1875,78.4313725490196,
52,2019-05-19,10:56:24.69800,1.89388,,14.7294,0,-11.1328125,-11.1328125,-0.1953125,3.3,0,92.1875,14.363358778626,92.1875,23,0,2976.5625,8.185546875,14.28621739,15.8238516,1.53763421,19.2126,4.92638261,24.5,2.215704,21.875,-3.75,22.03125,-2.8125,86.6666666666667,100.670588235294,84.2,0,31.075,14.22602,183.2,102.2,101.5625,0,96.875,92.1875,78.4313725490196,
53,2019-05-19,10:56:24.74485,1.93226,,14.7294,0,-11.1328125,-11.1328125,-0.1953125,3.4,0,93.75,14.363358778626,93.75,23,0,3023.4375,8.56640625,14.28621739,15.9203385,1.63412111,19.32975,5.04353261,24.5,2.411784,21.875,-3.75,22.03125,-2.8125,86.6666666666667,100.670588235294,84.2,0,31.075,14.22602,183.2,102.2,101.5625,0,100,93.75,78.4313725490196,
54,2019-05-19,10:56:24.77619,1.96142,,14.7294,0,-11.1328125,-11.1328125,-0.1953125,3.4,0,93.75,14.363358778626,95.3125,23,0,3039.0625,8.61067708333333,14.28621739,15.9203385,1.63412111,19.32975,5.04353261,24.5,2.411784,23.125,-3.75,22.5,-3.125,86.6666666666667,100.670588235294,84.2,0,31.075,14.29935,183.2,102.2,101.5625,0,98.4375,95.3125,78.4313725490196,
55,2019-05-19,10:56:24.80743,2.00361,,14.7294,0,-11.1328125,-11.1328125,-0.1953125,3.6,0,96.875,14.363358778626,96.875,22,0,3023.4375,9.0703125,14.28621739,16.0168254,1.73060801,19.4469,5.16068261,24.5,2.15688,23.125,-3.75,22.5,-3.125,86.6666666666667,100.670588235294,84.2,0,31.075,14.29935,183.2,102.2,103.125,0,96.875,96.875,78.4313725490196,
56,2019-05-19,10:56:24.85420,2.04087,,15.2439,0,-11.1328125,-11.1328125,-0.1953125,3.5,0,96.875,14.2545454545455,96.875,23,0,3015.625,8.79557291666667,14.28621739,16.0168254,1.73060801,19.4469,5.16068261,24.5,2.15688,23.125,-3.125,23.28125,-3.28125,86.6666666666667,100.670588235294,84.2,0,31.075,14.29935,183.2,102.2,103.125,0,98.4375,96.875,78.4313725490196,
57,2019-05-19,10:56:24.90107,2.08578,,15.2439,0,-11.1328125,-11.1328125,-0.1953125,3.6,0,96.875,14.2545454545455,98.4375,21,0,3054.6875,9.1640625,14.28621739,16.2097992,1.92358181,19.6812,5.39498261,24.5,2.411784,23.125,-3.125,23.28125,-3.28125,86.6666666666667,100.670588235294,84.2,0,33.561,14.29935,183.2,102.2,103.125,0,106.25,100,78.0392156862745,
58,2019-05-19,10:56:24.93231,2.11688,,15.2439,0,-11.1328125,-11.1328125,-0.1953125,3.6,0,100,14.2545454545455,100,21,0,3085.9375,9.2578125,14.28621739,16.2097992,1.92358181,19.6812,5.39498261,24.5,2.411784,25,-4.375,23.75,-2.8125,86.6666666666667,100.670588235294,84.2,0,33.561,14.29935,183.2,102.2,104.6875,0,104.6875,100,78.4313725490196,
59,2019-05-19,10:56:24.96355,2.15636,,15.2439,0,-11.1328125,-11.1328125,-0.1953125,3.7,0,100,14.2545454545455,101.5625,21,0,3101.5625,9.56315104166667,14.28621739,16.3062861,2.02006871,19.79835,5.51213261,24.5,2.74512,25,-4.375,23.75,-2.8125,86.6666666666667,100.670588235294,84.2,0,33.561,14.29935,183.2,102.2,104.6875,0,103.125,101.5625,78.4313725490196,
60,2019-05-19,10:56:25.01051,2.1969,,15.0381,0,-11.1328125,-11.1328125,-0.1953125,3.7,0,101.5625,14.1473684210526,103.125,20,0,3085.9375,9.51497395833333,14.28621739,16.3062861,2.02006871,19.79835,5.51213261,24.5,2.74512,24.375,-5,24.53125,-3.125,86.6666666666667,100.670588235294,84.2,0,33.561,14.29935,183.2,102.2,104.6875,0,103.125,103.125,78.4313725490196,
61,2019-05-19,10:56:25.04175,2.2383,,15.0381,0,-11.1328125,-11.1328125,-0.1953125,3.8,0,103.125,14.1473684210526,104.6875,20,0,3093.75,9.796875,14.28621739,16.4992599,2.21304251,20.03265,5.74643261,24.5,2.568648,24.375,-5,24.53125,-3.125,86.6666666666667,100.670588235294,84.2,0,33.561,14.29935,183.2,102.2,106.25,0,110.9375,104.6875,78.4313725490196,
62,2019-05-19,10:56:25.08865,2.27325,,15.0381,0,-11.1328125,-11.1328125,-0.1953125,3.9,0,104.6875,14.0417910447761,104.6875,20,0,3125,10.15625,14.28621739,16.4992599,2.21304251,20.03265,5.74643261,24.5,2.568648,26.25,-7.5,24.84375,-3.90625,86.6666666666667,100.670588235294,84.2,0,33.561,14.29935,183.2,102.2,106.25,0,110.9375,106.25,78.4313725490196,
63,2019-05-19,10:56:25.11978,2.31292,,15.0381,0,-11.1328125,-11.1328125,-0.1953125,3.9,0,106.25,14.0417910447761,106.25,19,0,3140.625,10.20703125,14.28621739,16.6922337,2.40601631,20.26695,5.98073261,24.5,2.451,26.25,-7.5,24.84375,-3.90625,86.6666666666667,100.670588235294,84.2,0,33.561,14.29935,183.2,100.4,107.8125,0,107.8125,107.8125,78.4313725490196,
64,2019-05-19,10:56:25.15101,2.34282,,14.7147,0,-11.1328125,-11.1328125,-0.1953125,3.9,0,107.8125,13.9377777777778,107.8125,19,0,3140.625,10.20703125,14.28621739,16.6922337,2.40601631,20.26695,5.98073261,24.5,2.451,26.25,-8.125,25.78125,-4.84375,86.6666666666667,100.670588235294,84.2,0,33.561,14.29935,183.2,100.4,107.8125,0,106.25,107.8125,78.4313725490196,
65,2019-05-19,10:56:25.18225,2.37795,,14.7147,0,-11.1328125,-11.1328125,-0.1953125,4,0,107.8125,13.9377777777778,107.8125,19,0,3164.0625,10.546875,14.28621739,16.8852075,2.59899011,20.50125,6.21503261,24.5,2.764728,26.25,-8.125,25.78125,-4.84375,86.2745098039216,100.670588235294,84.2,0,33.561,14.29935,183.2,100.4,109.375,0,115.625,109.375,78.4313725490196,
66,2019-05-19,10:56:25.21349,2.4049,,14.7147,0,-11.1328125,-11.1328125,-0.1953125,4,0,109.375,13.9377777777778,109.375,19,0,3164.0625,10.546875,14.28621739,16.8852075,2.59899011,20.50125,6.21503261,24.5,2.764728,26.25,-8.125,26.09375,-5.3125,86.2745098039216,100.670588235294,84.2,0,33.561,14.29935,183.2,100.4,109.375,0,110.9375,109.375,78.4313725490196,
67,2019-05-19,10:56:25.24477,2.43552,,14.7147,0,-11.1328125,-11.1328125,-0.1953125,4,0,109.375,13.9377777777778,109.375,19,0,3156.25,10.5208333333333,14.28621739,17.0781813,2.79196391,20.73555,6.44933261,24.5,2.64708,26.25,-8.125,26.09375,-5.3125,86.2745098039216,100.670588235294,84.2,0,33.561,14.29935,183.2,100.4,110.9375,0,120.3125,110.9375,78.4313725490196,
68,2019-05-19,10:56:25.27598,2.46552,,14.7147,0,-11.1328125,-11.1328125,-0.1953125,4,0,110.9375,13.9377777777778,110.9375,19,0,3164.0625,10.546875,14.28621739,17.0781813,2.79196391,20.73555,6.44933261,24.5,2.64708,26.875,-8.75,26.5625,-6.25,86.2745098039216,100.670588235294,84.2,0,33.561,14.29935,183.2,100.4,110.9375,0,118.75,110.9375,78.4313725490196,